Year,Month,Day,Hour,Minute,Value (Times are PST for windgust in km/hr)
2017,06,07,00,00,4.80
2017,06,07,00,01,4.80
2017,06,07,00,02,3.20
2017,06,07,00,03,4.80
2017,06,07,00,04,4.80
2017,06,07,00,05,3.20
2017,06,07,00,06,4.80
2017,06,07,00,07,4.80
2017,06,07,00,08,8.10
2017,06,07,00,09,9.60
2017,06,07,00,10,8.10
2017,06,07,00,11,6.40
2017,06,07,00,12,4.80
2017,06,07,00,13,4.80
2017,06,07,00,14,3.20
2017,06,07,00,15,1.60
2017,06,07,00,16,4.80
2017,06,07,00,17,6.40
2017,06,07,00,18,8.10
2017,06,07,00,19,6.40
2017,06,07,00,20,1.60
2017,06,07,00,21,3.20
2017,06,07,00,22,1.60
2017,06,07,00,23,1.60
2017,06,07,00,24,1.60
2017,06,07,00,25,1.60
2017,06,07,00,26,1.60
2017,06,07,00,27,1.60
2017,06,07,00,28,3.20
2017,06,07,00,29,4.80
2017,06,07,00,30,4.80
2017,06,07,00,31,6.40
2017,06,07,00,32,4.80
2017,06,07,00,33,4.80
2017,06,07,00,34,4.80
2017,06,07,00,35,4.80
2017,06,07,00,36,4.80
2017,06,07,00,37,9.60
2017,06,07,00,38,8.10
2017,06,07,00,39,6.40
2017,06,07,00,40,4.80
2017,06,07,00,41,6.40
2017,06,07,00,42,4.80
2017,06,07,00,43,3.20
2017,06,07,00,44,3.20
2017,06,07,00,45,6.40
2017,06,07,00,46,6.40
2017,06,07,00,47,6.40
2017,06,07,00,48,4.80
2017,06,07,00,49,8.10
2017,06,07,00,50,4.80
2017,06,07,00,51,6.40
2017,06,07,00,52,8.10
2017,06,07,00,53,6.40
2017,06,07,00,54,4.80
2017,06,07,00,55,6.40
2017,06,07,00,56,8.10
2017,06,07,00,57,8.10
2017,06,07,00,58,8.10
2017,06,07,00,59,8.10
2017,06,07,01,00,6.40
2017,06,07,01,01,6.40
2017,06,07,01,02,4.80
2017,06,07,01,03,4.80
2017,06,07,01,04,3.20
2017,06,07,01,05,3.20
2017,06,07,01,06,3.20
2017,06,07,01,07,3.20
2017,06,07,01,08,4.80
2017,06,07,01,09,8.10
2017,06,07,01,10,8.10
2017,06,07,01,11,8.10
2017,06,07,01,12,9.60
2017,06,07,01,13,8.10
2017,06,07,01,14,6.40
2017,06,07,01,15,8.10
2017,06,07,01,16,8.10
2017,06,07,01,17,6.40
2017,06,07,01,18,6.40
2017,06,07,01,19,4.80
2017,06,07,01,20,8.10
2017,06,07,01,21,4.80
2017,06,07,01,22,4.80
2017,06,07,01,23,4.80
2017,06,07,01,24,3.20
2017,06,07,01,25,4.80
2017,06,07,01,26,8.10
2017,06,07,01,27,6.40
2017,06,07,01,28,6.40
2017,06,07,01,29,8.10
2017,06,07,01,30,8.10
2017,06,07,01,31,9.60
2017,06,07,01,32,9.60
2017,06,07,01,33,9.60
2017,06,07,01,34,8.10
2017,06,07,01,35,8.10
2017,06,07,01,36,6.40
2017,06,07,01,37,8.10
2017,06,07,01,38,8.10
2017,06,07,01,39,8.10
2017,06,07,01,40,6.40
2017,06,07,01,41,3.20
2017,06,07,01,42,3.20
2017,06,07,01,43,3.20
2017,06,07,01,44,3.20
2017,06,07,01,45,3.20
2017,06,07,01,46,6.40
2017,06,07,01,47,6.40
2017,06,07,01,48,3.20
2017,06,07,01,49,3.20
2017,06,07,01,50,3.20
2017,06,07,01,51,1.60
2017,06,07,01,52,3.20
2017,06,07,01,53,3.20
2017,06,07,01,54,3.20
2017,06,07,01,55,1.60
2017,06,07,01,56,1.60
2017,06,07,01,57,3.20
2017,06,07,01,58,3.20
2017,06,07,01,59,1.60
2017,06,07,02,00,1.60
2017,06,07,02,01,3.20
2017,06,07,02,02,1.60
2017,06,07,02,15,1.60
2017,06,07,02,18,1.60
2017,06,07,02,19,3.20
2017,06,07,02,20,3.20
2017,06,07,02,21,1.60
2017,06,07,02,26,1.60
2017,06,07,02,27,1.60
2017,06,07,02,28,1.60
2017,06,07,02,29,3.20
2017,06,07,02,30,6.40
2017,06,07,02,31,6.40
2017,06,07,02,32,3.20
2017,06,07,02,33,1.60
2017,06,07,02,34,1.60
2017,06,07,02,35,3.20
2017,06,07,02,36,3.20
2017,06,07,02,37,3.20
2017,06,07,02,38,3.20
2017,06,07,02,39,3.20
2017,06,07,02,40,3.20
2017,06,07,02,41,1.60
2017,06,07,02,42,3.20
2017,06,07,02,43,3.20
2017,06,07,02,44,1.60
2017,06,07,02,45,1.60
2017,06,07,02,46,3.20
2017,06,07,02,47,3.20
2017,06,07,02,48,3.20
2017,06,07,02,49,3.20
2017,06,07,02,50,1.60
2017,06,07,02,51,6.40
2017,06,07,02,52,6.40
2017,06,07,02,53,6.40
2017,06,07,02,54,3.20
2017,06,07,02,55,1.60
2017,06,07,02,59,3.20
2017,06,07,03,00,6.40
2017,06,07,03,01,3.20
2017,06,07,03,02,1.60
2017,06,07,03,03,1.60
2017,06,07,03,04,1.60
2017,06,07,03,05,3.20
2017,06,07,03,06,3.20
2017,06,07,03,09,3.20
2017,06,07,03,10,3.20
2017,06,07,03,11,8.10
2017,06,07,03,12,9.60
2017,06,07,03,13,6.40
2017,06,07,03,14,8.10
2017,06,07,03,15,8.10
2017,06,07,03,16,8.10
2017,06,07,03,17,3.20
2017,06,07,03,18,3.20
2017,06,07,03,19,1.60
2017,06,07,03,20,1.60
2017,06,07,03,21,3.20
2017,06,07,03,22,3.20
2017,06,07,03,23,1.60
2017,06,07,03,24,3.20
2017,06,07,03,25,3.20
2017,06,07,03,26,1.60
2017,06,07,03,31,1.60
2017,06,07,03,38,3.20
2017,06,07,03,39,3.20
2017,06,07,03,40,3.20
2017,06,07,03,41,1.60
2017,06,07,03,42,1.60
2017,06,07,03,43,1.60
2017,06,07,03,44,3.20
2017,06,07,03,45,3.20
2017,06,07,03,46,4.80
2017,06,07,03,47,4.80
2017,06,07,03,48,4.80
2017,06,07,03,49,4.80
2017,06,07,03,50,4.80
2017,06,07,03,51,4.80
2017,06,07,03,52,3.20
2017,06,07,03,53,3.20
2017,06,07,03,54,3.20
2017,06,07,03,55,3.20
2017,06,07,03,56,1.60
2017,06,07,04,06,1.60
2017,06,07,04,08,1.60
2017,06,07,04,17,3.20
2017,06,07,04,18,1.60
2017,06,07,04,19,1.60
2017,06,07,04,20,1.60
2017,06,07,04,21,1.60
2017,06,07,04,23,1.60
2017,06,07,04,24,3.20
2017,06,07,04,25,3.20
2017,06,07,04,26,6.40
2017,06,07,04,27,6.40
2017,06,07,04,28,4.80
2017,06,07,04,29,4.80
2017,06,07,04,30,4.80
2017,06,07,04,31,4.80
2017,06,07,04,32,4.80
2017,06,07,04,33,4.80
2017,06,07,04,34,3.20
2017,06,07,04,35,1.60
2017,06,07,04,36,3.20
2017,06,07,04,37,3.20
2017,06,07,04,38,1.60
2017,06,07,04,39,1.60
2017,06,07,04,48,1.60
2017,06,07,04,49,1.60
2017,06,07,04,55,1.60
2017,06,07,05,02,1.60
2017,06,07,05,03,1.60
2017,06,07,05,10,3.20
2017,06,07,05,11,3.20
2017,06,07,05,12,1.60
2017,06,07,05,24,1.60
2017,06,07,05,25,3.20
2017,06,07,05,26,4.80
2017,06,07,05,27,4.80
2017,06,07,05,28,3.20
2017,06,07,05,29,3.20
2017,06,07,05,30,1.60
2017,06,07,05,31,1.60
2017,06,07,05,32,1.60
2017,06,07,05,44,1.60
2017,06,07,05,45,1.60
2017,06,07,05,46,3.20
2017,06,07,05,47,1.60
2017,06,07,05,48,1.60
2017,06,07,05,49,1.60
2017,06,07,05,50,1.60
2017,06,07,05,51,1.60
2017,06,07,05,52,1.60
2017,06,07,05,54,1.60
2017,06,07,05,55,1.60
2017,06,07,05,59,1.60
2017,06,07,06,00,1.60
2017,06,07,06,01,1.60
2017,06,07,06,05,1.60
2017,06,07,06,06,3.20
2017,06,07,06,07,1.60
2017,06,07,06,08,3.20
2017,06,07,06,09,3.20
2017,06,07,06,10,1.60
2017,06,07,06,57,3.20
2017,06,07,06,58,4.80
2017,06,07,06,59,4.80
2017,06,07,07,00,4.80
2017,06,07,07,01,3.20
2017,06,07,07,02,3.20
2017,06,07,07,03,3.20
2017,06,07,07,04,3.20
2017,06,07,07,05,3.20
2017,06,07,07,06,3.20
2017,06,07,07,07,1.60
2017,06,07,07,08,1.60
2017,06,07,07,14,1.60
2017,06,07,07,15,3.20
2017,06,07,07,16,1.60
2017,06,07,07,17,1.60
2017,06,07,07,18,1.60
2017,06,07,07,29,1.60
2017,06,07,07,30,1.60
2017,06,07,07,31,1.60
2017,06,07,07,46,1.60
2017,06,07,07,47,1.60
2017,06,07,07,48,1.60
2017,06,07,07,49,1.60
2017,06,07,08,01,1.60
2017,06,07,08,02,1.60
2017,06,07,08,06,1.60
2017,06,07,08,08,4.80
2017,06,07,08,09,4.80
2017,06,07,08,10,3.20
2017,06,07,08,11,1.60
2017,06,07,08,13,3.20
2017,06,07,08,14,4.80
2017,06,07,08,15,4.80
2017,06,07,08,16,3.20
2017,06,07,08,17,1.60
2017,06,07,08,18,1.60
2017,06,07,08,19,1.60
2017,06,07,08,20,1.60
2017,06,07,08,22,1.60
2017,06,07,08,23,1.60
2017,06,07,08,24,4.80
2017,06,07,08,25,1.60
2017,06,07,08,26,3.20
2017,06,07,08,28,1.60
2017,06,07,08,31,4.80
2017,06,07,08,32,8.10
2017,06,07,08,33,6.40
2017,06,07,08,34,6.40
2017,06,07,08,35,4.80
2017,06,07,08,36,6.40
2017,06,07,08,37,6.40
2017,06,07,08,38,4.80
2017,06,07,08,39,6.40
2017,06,07,08,40,12.90
2017,06,07,08,41,14.50
2017,06,07,08,42,14.50
2017,06,07,08,43,14.50
2017,06,07,08,44,11.30
2017,06,07,08,45,12.90
2017,06,07,08,46,11.30
2017,06,07,08,47,12.90
2017,06,07,08,48,11.30
2017,06,07,08,49,11.30
2017,06,07,08,50,11.30
2017,06,07,08,51,9.60
2017,06,07,08,52,12.90
2017,06,07,08,53,11.30
2017,06,07,08,54,11.30
2017,06,07,08,55,11.30
2017,06,07,08,56,12.90
2017,06,07,08,57,12.90
2017,06,07,08,58,12.90
2017,06,07,08,59,12.90
2017,06,07,09,00,14.50
2017,06,07,09,01,12.90
2017,06,07,09,02,12.90
2017,06,07,09,03,11.30
2017,06,07,09,04,11.30
2017,06,07,09,05,11.30
2017,06,07,09,06,11.30
2017,06,07,09,07,12.90
2017,06,07,09,08,11.30
2017,06,07,09,09,12.90
2017,06,07,09,10,11.30
2017,06,07,09,11,9.60
2017,06,07,09,12,9.60
2017,06,07,09,13,9.60
2017,06,07,09,14,8.10
2017,06,07,09,15,9.60
2017,06,07,09,16,9.60
2017,06,07,09,17,9.60
2017,06,07,09,18,11.30
2017,06,07,09,19,11.30
2017,06,07,09,20,9.60
2017,06,07,09,21,11.30
2017,06,07,09,22,12.90
2017,06,07,09,23,11.30
2017,06,07,09,24,11.30
2017,06,07,09,25,11.30
2017,06,07,09,26,11.30
2017,06,07,09,27,11.30
2017,06,07,09,28,11.30
2017,06,07,09,29,9.60
2017,06,07,09,30,8.10
2017,06,07,09,31,6.40
2017,06,07,09,32,4.80
2017,06,07,09,33,6.40
2017,06,07,09,34,6.40
2017,06,07,09,35,4.80
2017,06,07,09,36,6.40
2017,06,07,09,37,4.80
2017,06,07,09,38,4.80
2017,06,07,09,39,4.80
2017,06,07,09,40,4.80
2017,06,07,09,41,4.80
2017,06,07,09,42,4.80
2017,06,07,09,43,4.80
2017,06,07,09,44,8.10
2017,06,07,09,45,11.30
2017,06,07,09,46,11.30
2017,06,07,09,47,11.30
2017,06,07,09,48,11.30
2017,06,07,09,49,11.30
2017,06,07,09,50,9.60
2017,06,07,09,51,9.60
2017,06,07,09,52,9.60
2017,06,07,09,53,9.60
2017,06,07,09,54,11.30
2017,06,07,09,55,11.30
2017,06,07,09,56,9.60
2017,06,07,09,57,9.60
2017,06,07,09,58,8.10
2017,06,07,09,59,8.10
2017,06,07,10,00,6.40
2017,06,07,10,01,8.10
2017,06,07,10,02,8.10
2017,06,07,10,03,8.10
2017,06,07,10,04,6.40
2017,06,07,10,05,6.40
2017,06,07,10,06,6.40
2017,06,07,10,07,6.40
2017,06,07,10,08,6.40
2017,06,07,10,09,8.10
2017,06,07,10,10,6.40
2017,06,07,10,11,6.40
2017,06,07,10,12,6.40
2017,06,07,10,13,8.10
2017,06,07,10,14,9.60
2017,06,07,10,15,8.10
2017,06,07,10,16,9.60
2017,06,07,10,17,8.10
2017,06,07,10,18,9.60
2017,06,07,10,19,9.60
2017,06,07,10,20,9.60
2017,06,07,10,21,9.60
2017,06,07,10,22,9.60
2017,06,07,10,23,8.10
2017,06,07,10,24,8.10
2017,06,07,10,25,9.60
2017,06,07,10,26,9.60
2017,06,07,10,27,8.10
2017,06,07,10,28,9.60
2017,06,07,10,29,11.30
2017,06,07,10,30,11.30
2017,06,07,10,31,12.90
2017,06,07,10,32,11.30
2017,06,07,10,33,12.90
2017,06,07,10,34,12.90
2017,06,07,10,35,11.30
2017,06,07,10,36,11.30
2017,06,07,10,37,12.90
2017,06,07,10,38,14.50
2017,06,07,10,39,14.50
2017,06,07,10,40,11.30
2017,06,07,10,41,12.90
2017,06,07,10,42,11.30
2017,06,07,10,43,12.90
2017,06,07,10,44,14.50
2017,06,07,10,45,12.90
2017,06,07,10,46,14.50
2017,06,07,10,47,12.90
2017,06,07,10,48,12.90
2017,06,07,10,49,11.30
2017,06,07,10,50,12.90
2017,06,07,10,51,12.90
2017,06,07,10,52,9.60
2017,06,07,10,53,11.30
2017,06,07,10,54,12.90
2017,06,07,10,55,14.50
2017,06,07,10,56,12.90
2017,06,07,10,57,14.50
2017,06,07,10,58,11.30
2017,06,07,10,59,11.30
2017,06,07,11,00,11.30
2017,06,07,11,01,9.60
2017,06,07,11,02,9.60
2017,06,07,11,03,12.90
2017,06,07,11,04,9.60
2017,06,07,11,05,11.30
2017,06,07,11,06,14.50
2017,06,07,11,07,12.90
2017,06,07,11,08,11.30
2017,06,07,11,09,9.60
2017,06,07,11,10,11.30
2017,06,07,11,11,12.90
2017,06,07,11,12,14.50
2017,06,07,11,13,14.50
2017,06,07,11,14,14.50
2017,06,07,11,15,14.50
2017,06,07,11,16,16.10
2017,06,07,11,17,14.50
2017,06,07,11,18,14.50
2017,06,07,11,19,16.10
2017,06,07,11,20,17.70
2017,06,07,11,21,17.70
2017,06,07,11,22,16.10
2017,06,07,11,23,14.50
2017,06,07,11,24,14.50
2017,06,07,11,25,14.50
2017,06,07,11,26,12.90
2017,06,07,11,27,12.90
2017,06,07,11,28,16.10
2017,06,07,11,29,14.50
2017,06,07,11,30,14.50
2017,06,07,11,31,16.10
2017,06,07,11,32,12.90
2017,06,07,11,33,16.10
2017,06,07,11,34,16.10
2017,06,07,11,35,16.10
2017,06,07,11,36,17.70
2017,06,07,11,37,17.70
2017,06,07,11,38,14.50
2017,06,07,11,39,16.10
2017,06,07,11,40,16.10
2017,06,07,11,41,16.10
2017,06,07,11,42,16.10
2017,06,07,11,43,16.10
2017,06,07,11,44,16.10
2017,06,07,11,45,11.30
2017,06,07,11,46,14.50
2017,06,07,11,47,17.70
2017,06,07,11,48,14.50
2017,06,07,11,49,14.50
2017,06,07,11,50,14.50
2017,06,07,11,51,14.50
2017,06,07,11,52,14.50
2017,06,07,11,53,16.10
2017,06,07,11,54,17.70
2017,06,07,11,55,16.10
2017,06,07,11,56,14.50
2017,06,07,11,57,12.90
2017,06,07,11,58,14.50
2017,06,07,11,59,12.90
2017,06,07,12,00,16.10
2017,06,07,12,01,14.50
2017,06,07,12,02,17.70
2017,06,07,12,03,17.70
2017,06,07,12,04,16.10
2017,06,07,12,05,14.50
2017,06,07,12,06,14.50
2017,06,07,12,07,11.30
2017,06,07,12,08,12.90
2017,06,07,12,09,11.30
2017,06,07,12,10,12.90
2017,06,07,12,11,12.90
2017,06,07,12,12,12.90
2017,06,07,12,13,11.30
2017,06,07,12,14,9.60
2017,06,07,12,15,11.30
2017,06,07,12,16,11.30
2017,06,07,12,17,12.90
2017,06,07,12,18,12.90
2017,06,07,12,19,12.90
2017,06,07,12,20,12.90
2017,06,07,12,21,12.90
2017,06,07,12,22,11.30
2017,06,07,12,23,12.90
2017,06,07,12,24,12.90
2017,06,07,12,25,11.30
2017,06,07,12,26,9.60
2017,06,07,12,27,12.90
2017,06,07,12,28,14.50
2017,06,07,12,29,12.90
2017,06,07,12,30,14.50
2017,06,07,12,31,14.50
2017,06,07,12,32,12.90
2017,06,07,12,33,12.90
2017,06,07,12,34,14.50
2017,06,07,12,35,14.50
2017,06,07,12,36,14.50
2017,06,07,12,37,14.50
2017,06,07,12,38,12.90
2017,06,07,12,39,11.30
2017,06,07,12,40,8.10
2017,06,07,12,41,9.60
2017,06,07,12,42,11.30
2017,06,07,12,43,12.90
2017,06,07,12,44,14.50
2017,06,07,12,45,14.50
2017,06,07,12,46,11.30
2017,06,07,12,47,11.30
2017,06,07,12,48,11.30
2017,06,07,12,49,12.90
2017,06,07,12,50,11.30
2017,06,07,12,51,11.30
2017,06,07,12,52,11.30
2017,06,07,12,53,9.60
2017,06,07,12,54,12.90
2017,06,07,12,55,11.30
2017,06,07,12,56,12.90
2017,06,07,12,57,14.50
2017,06,07,12,58,12.90
2017,06,07,12,59,12.90
2017,06,07,13,00,14.50
2017,06,07,13,01,16.10
2017,06,07,13,02,16.10
2017,06,07,13,03,16.10
2017,06,07,13,04,17.70
2017,06,07,13,05,17.70
2017,06,07,13,06,14.50
2017,06,07,13,07,16.10
2017,06,07,13,08,17.70
2017,06,07,13,09,14.50
2017,06,07,13,10,16.10
2017,06,07,13,11,9.60
2017,06,07,13,12,11.30
2017,06,07,13,13,12.90
2017,06,07,13,14,14.50
2017,06,07,13,15,11.30
2017,06,07,13,16,11.30
2017,06,07,13,17,12.90
2017,06,07,13,18,11.30
2017,06,07,13,19,12.90
2017,06,07,13,20,16.10
2017,06,07,13,21,16.10
2017,06,07,13,22,11.30
2017,06,07,13,23,11.30
2017,06,07,13,24,9.60
2017,06,07,13,25,11.30
2017,06,07,13,26,12.90
2017,06,07,13,27,12.90
2017,06,07,13,28,11.30
2017,06,07,13,29,16.10
2017,06,07,13,30,11.30
2017,06,07,13,31,11.30
2017,06,07,13,32,9.60
2017,06,07,13,33,11.30
2017,06,07,13,34,11.30
2017,06,07,13,35,12.90
2017,06,07,13,36,9.60
2017,06,07,13,37,8.10
2017,06,07,13,38,9.60
2017,06,07,13,39,8.10
2017,06,07,13,40,3.20
2017,06,07,13,41,4.80
2017,06,07,13,42,3.20
2017,06,07,13,43,4.80
2017,06,07,13,44,4.80
2017,06,07,13,45,1.60
2017,06,07,13,46,8.10
2017,06,07,13,47,6.40
2017,06,07,13,48,6.40
2017,06,07,13,49,9.60
2017,06,07,13,50,4.80
2017,06,07,13,51,4.80
2017,06,07,13,52,6.40
2017,06,07,13,53,3.20
2017,06,07,13,54,1.60
2017,06,07,13,55,1.60
2017,06,07,13,56,3.20
2017,06,07,13,57,3.20
2017,06,07,13,58,4.80
2017,06,07,13,59,8.10
2017,06,07,14,00,8.10
2017,06,07,14,01,6.40
2017,06,07,14,02,8.10
2017,06,07,14,03,8.10
2017,06,07,14,04,9.60
2017,06,07,14,05,9.60
2017,06,07,14,06,9.60
2017,06,07,14,07,8.10
2017,06,07,14,08,9.60
2017,06,07,14,09,9.60
2017,06,07,14,10,8.10
2017,06,07,14,11,9.60
2017,06,07,14,12,9.60
2017,06,07,14,13,9.60
2017,06,07,14,14,11.30
2017,06,07,14,15,11.30
2017,06,07,14,16,8.10
2017,06,07,14,17,11.30
2017,06,07,14,18,8.10
2017,06,07,14,19,11.30
2017,06,07,14,20,9.60
2017,06,07,14,21,11.30
2017,06,07,14,22,8.10
2017,06,07,14,23,9.60
2017,06,07,14,24,11.30
2017,06,07,14,25,8.10
2017,06,07,14,26,8.10
2017,06,07,14,27,8.10
2017,06,07,14,28,9.60
2017,06,07,14,29,9.60
2017,06,07,14,30,6.40
2017,06,07,14,31,8.10
2017,06,07,14,32,8.10
2017,06,07,14,33,6.40
2017,06,07,14,34,6.40
2017,06,07,14,35,6.40
2017,06,07,14,36,3.20
2017,06,07,14,37,6.40
2017,06,07,14,38,8.10
2017,06,07,14,39,8.10
2017,06,07,14,40,8.10
2017,06,07,14,41,9.60
2017,06,07,14,42,11.30
2017,06,07,14,43,12.90
2017,06,07,14,44,12.90
2017,06,07,14,45,12.90
2017,06,07,14,46,11.30
2017,06,07,14,47,9.60
2017,06,07,14,48,9.60
2017,06,07,14,49,8.10
2017,06,07,14,50,9.60
2017,06,07,14,51,9.60
2017,06,07,14,52,8.10
2017,06,07,14,53,9.60
2017,06,07,14,54,9.60
2017,06,07,14,55,8.10
2017,06,07,14,56,12.90
2017,06,07,14,57,11.30
2017,06,07,14,58,9.60
2017,06,07,14,59,9.60
2017,06,07,15,00,11.30
2017,06,07,15,01,12.90
2017,06,07,15,02,12.90
2017,06,07,15,03,12.90
2017,06,07,15,04,14.50
2017,06,07,15,05,12.90
2017,06,07,15,06,12.90
2017,06,07,15,07,11.30
2017,06,07,15,08,14.50
2017,06,07,15,09,12.90
2017,06,07,15,10,12.90
2017,06,07,15,11,11.30
2017,06,07,15,12,11.30
2017,06,07,15,13,12.90
2017,06,07,15,14,11.30
2017,06,07,15,15,12.90
2017,06,07,15,16,12.90
2017,06,07,15,17,11.30
2017,06,07,15,18,12.90
2017,06,07,15,19,9.60
2017,06,07,15,20,11.30
2017,06,07,15,21,11.30
2017,06,07,15,22,14.50
2017,06,07,15,23,12.90
2017,06,07,15,24,14.50
2017,06,07,15,25,17.70
2017,06,07,15,26,12.90
2017,06,07,15,27,12.90
2017,06,07,15,28,12.90
2017,06,07,15,29,14.50
2017,06,07,15,30,12.90
2017,06,07,15,31,11.30
2017,06,07,15,32,11.30
2017,06,07,15,33,11.30
2017,06,07,15,34,9.60
2017,06,07,15,35,12.90
2017,06,07,15,36,12.90
2017,06,07,15,37,12.90
2017,06,07,15,38,12.90
2017,06,07,15,39,12.90
2017,06,07,15,40,12.90
2017,06,07,15,41,16.10
2017,06,07,15,42,16.10
2017,06,07,15,43,17.70
2017,06,07,15,44,14.50
2017,06,07,15,45,11.30
2017,06,07,15,46,11.30
2017,06,07,15,47,9.60
2017,06,07,15,48,11.30
2017,06,07,15,49,12.90
2017,06,07,15,50,16.10
2017,06,07,15,51,14.50
2017,06,07,15,52,12.90
2017,06,07,15,53,14.50
2017,06,07,15,54,12.90
2017,06,07,15,55,12.90
2017,06,07,15,56,12.90
2017,06,07,15,57,12.90
2017,06,07,15,58,16.10
2017,06,07,15,59,14.50
2017,06,07,16,00,17.70
2017,06,07,16,01,16.10
2017,06,07,16,02,16.10
2017,06,07,16,03,14.50
2017,06,07,16,04,20.90
2017,06,07,16,05,20.90
2017,06,07,16,06,19.30
2017,06,07,16,07,17.70
2017,06,07,16,08,16.10
2017,06,07,16,09,16.10
2017,06,07,16,10,17.70
2017,06,07,16,11,17.70
2017,06,07,16,12,19.30
2017,06,07,16,13,17.70
2017,06,07,16,14,16.10
2017,06,07,16,15,11.30
2017,06,07,16,16,11.30
2017,06,07,16,17,9.60
2017,06,07,16,18,6.40
2017,06,07,16,19,8.10
2017,06,07,16,20,12.90
2017,06,07,16,21,16.10
2017,06,07,16,22,14.50
2017,06,07,16,23,14.50
2017,06,07,16,24,11.30
2017,06,07,16,25,14.50
2017,06,07,16,26,14.50
2017,06,07,16,27,14.50
2017,06,07,16,28,17.70
2017,06,07,16,29,16.10
2017,06,07,16,30,16.10
2017,06,07,16,31,16.10
2017,06,07,16,32,14.50
2017,06,07,16,33,14.50
2017,06,07,16,34,12.90
2017,06,07,16,35,9.60
2017,06,07,16,36,12.90
2017,06,07,16,37,14.50
2017,06,07,16,38,12.90
2017,06,07,16,39,11.30
2017,06,07,16,40,9.60
2017,06,07,16,41,9.60
2017,06,07,16,42,9.60
2017,06,07,16,43,9.60
2017,06,07,16,44,9.60
2017,06,07,16,45,11.30
2017,06,07,16,46,12.90
2017,06,07,16,47,12.90
2017,06,07,16,48,12.90
2017,06,07,16,49,14.50
2017,06,07,16,50,12.90
2017,06,07,16,51,11.30
2017,06,07,16,52,11.30
2017,06,07,16,53,9.60
2017,06,07,16,54,11.30
2017,06,07,16,55,11.30
2017,06,07,16,56,14.50
2017,06,07,16,57,14.50
2017,06,07,16,58,16.10
2017,06,07,16,59,12.90
2017,06,07,17,00,11.30
2017,06,07,17,01,11.30
2017,06,07,17,02,12.90
2017,06,07,17,03,12.90
2017,06,07,17,04,16.10
2017,06,07,17,05,14.50
2017,06,07,17,06,16.10
2017,06,07,17,07,14.50
2017,06,07,17,08,12.90
2017,06,07,17,09,14.50
2017,06,07,17,10,16.10
2017,06,07,17,11,11.30
2017,06,07,17,12,16.10
2017,06,07,17,13,17.70
2017,06,07,17,14,17.70
2017,06,07,17,15,17.70
2017,06,07,17,16,16.10
2017,06,07,17,17,16.10
2017,06,07,17,18,22.50
2017,06,07,17,19,19.30
2017,06,07,17,20,20.90
2017,06,07,17,21,20.90
2017,06,07,17,22,17.70
2017,06,07,17,23,19.30
2017,06,07,17,24,27.40
2017,06,07,17,25,22.50
2017,06,07,17,26,22.50
2017,06,07,17,27,19.30
2017,06,07,17,28,24.20
2017,06,07,17,29,20.90
2017,06,07,17,30,17.70
2017,06,07,17,31,16.10
2017,06,07,17,32,14.50
2017,06,07,17,33,16.10
2017,06,07,17,34,11.30
2017,06,07,17,35,14.50
2017,06,07,17,36,14.50
2017,06,07,17,37,12.90
2017,06,07,17,38,14.50
2017,06,07,17,39,16.10
2017,06,07,17,40,14.50
2017,06,07,17,41,16.10
2017,06,07,17,42,17.70
2017,06,07,17,43,11.30
2017,06,07,17,44,17.70
2017,06,07,17,45,14.50
2017,06,07,17,46,14.50
2017,06,07,17,47,9.60
2017,06,07,17,48,11.30
2017,06,07,17,49,12.90
2017,06,07,17,50,11.30
2017,06,07,17,51,11.30
2017,06,07,17,52,11.30
2017,06,07,17,53,9.60
2017,06,07,17,54,11.30
2017,06,07,17,55,12.90
2017,06,07,17,56,12.90
2017,06,07,17,57,11.30
2017,06,07,17,58,9.60
2017,06,07,17,59,12.90
2017,06,07,18,00,9.60
2017,06,07,18,01,16.10
2017,06,07,18,02,14.50
2017,06,07,18,03,11.30
2017,06,07,18,04,9.60
2017,06,07,18,05,9.60
2017,06,07,18,06,8.10
2017,06,07,18,07,8.10
2017,06,07,18,08,9.60
2017,06,07,18,09,9.60
2017,06,07,18,10,6.40
2017,06,07,18,11,8.10
2017,06,07,18,12,3.20
2017,06,07,18,13,4.80
2017,06,07,18,14,8.10
2017,06,07,18,15,8.10
2017,06,07,18,16,4.80
2017,06,07,18,17,4.80
2017,06,07,18,18,8.10
2017,06,07,18,19,4.80
2017,06,07,18,20,9.60
2017,06,07,18,21,9.60
2017,06,07,18,22,11.30
2017,06,07,18,23,9.60
2017,06,07,18,24,8.10
2017,06,07,18,25,6.40
2017,06,07,18,26,8.10
2017,06,07,18,27,8.10
2017,06,07,18,28,9.60
2017,06,07,18,29,4.80
2017,06,07,18,30,4.80
2017,06,07,18,31,1.60
2017,06,07,18,32,3.20
2017,06,07,18,33,6.40
2017,06,07,18,34,3.20
2017,06,07,18,35,4.80
2017,06,07,18,36,1.60
2017,06,07,18,42,1.60
2017,06,07,18,46,1.60
2017,06,07,18,47,3.20
2017,06,07,18,48,1.60
2017,06,07,18,49,1.60
2017,06,07,18,55,1.60
2017,06,07,18,56,1.60
2017,06,07,18,57,1.60
2017,06,07,19,01,1.60
2017,06,07,19,02,1.60
2017,06,07,19,23,1.60
2017,06,07,19,24,3.20
2017,06,07,19,25,6.40
2017,06,07,19,26,6.40
2017,06,07,19,27,6.40
2017,06,07,19,28,11.30
2017,06,07,19,29,14.50
2017,06,07,19,30,14.50
2017,06,07,19,31,11.30
2017,06,07,19,32,8.10
2017,06,07,19,33,11.30
2017,06,07,19,34,11.30
2017,06,07,19,35,12.90
2017,06,07,19,36,9.60
2017,06,07,19,37,8.10
2017,06,07,19,38,6.40
2017,06,07,19,39,8.10
2017,06,07,19,40,8.10
2017,06,07,19,41,9.60
2017,06,07,19,42,6.40
2017,06,07,19,43,4.80
2017,06,07,19,44,3.20
2017,06,07,19,45,4.80
2017,06,07,19,46,4.80
2017,06,07,19,47,4.80
2017,06,07,19,48,4.80
2017,06,07,19,49,4.80
2017,06,07,19,50,4.80
2017,06,07,19,51,4.80
2017,06,07,19,52,3.20
2017,06,07,19,53,1.60
2017,06,07,19,56,3.20
2017,06,07,19,57,4.80
2017,06,07,19,58,6.40
2017,06,07,19,59,6.40
2017,06,07,20,00,6.40
2017,06,07,20,01,9.60
2017,06,07,20,02,4.80
2017,06,07,20,03,1.60
2017,06,07,20,04,1.60
2017,06,07,20,07,1.60
2017,06,07,20,08,1.60
2017,06,07,20,09,6.40
2017,06,07,20,10,4.80
2017,06,07,20,11,4.80
2017,06,07,20,13,1.60
2017,06,07,20,14,3.20
2017,06,07,20,24,3.20
2017,06,07,20,25,3.20
2017,06,07,20,26,3.20
2017,06,07,20,27,1.60
2017,06,07,20,39,1.60
2017,06,07,20,40,4.80
2017,06,07,20,41,4.80
2017,06,07,20,42,1.60
2017,06,07,20,50,1.60
2017,06,07,20,51,3.20
2017,06,07,20,52,4.80
2017,06,07,20,53,3.20
2017,06,07,20,54,3.20
2017,06,07,20,55,3.20
2017,06,07,20,56,3.20
2017,06,07,20,57,1.60
2017,06,07,20,58,1.60
2017,06,07,21,28,6.40
2017,06,07,21,29,1.60
2017,06,07,21,30,3.20
2017,06,07,21,31,8.10
2017,06,07,21,32,8.10
2017,06,07,21,33,6.40
2017,06,07,21,34,11.30
2017,06,07,21,35,12.90
2017,06,07,21,36,6.40
2017,06,07,21,37,6.40
2017,06,07,21,38,4.80
2017,06,07,21,39,4.80
2017,06,07,21,40,3.20
2017,06,07,21,41,4.80
2017,06,07,21,42,6.40
2017,06,07,21,43,6.40
2017,06,07,21,44,8.10
2017,06,07,21,45,6.40
2017,06,07,21,46,8.10
2017,06,07,21,47,11.30
2017,06,07,21,48,11.30
2017,06,07,21,49,9.60
2017,06,07,21,50,8.10
2017,06,07,21,51,8.10
2017,06,07,21,52,8.10
2017,06,07,21,53,9.60
2017,06,07,21,54,9.60
2017,06,07,21,55,11.30
2017,06,07,21,56,12.90
2017,06,07,21,57,11.30
2017,06,07,21,58,11.30
2017,06,07,21,59,9.60
2017,06,07,22,00,8.10
2017,06,07,22,01,9.60
2017,06,07,22,02,11.30
2017,06,07,22,03,14.50
2017,06,07,22,04,14.50
2017,06,07,22,05,11.30
2017,06,07,22,06,11.30
2017,06,07,22,07,14.50
2017,06,07,22,08,12.90
2017,06,07,22,09,11.30
2017,06,07,22,10,11.30
2017,06,07,22,11,12.90
2017,06,07,22,12,14.50
2017,06,07,22,13,16.10
2017,06,07,22,14,16.10
2017,06,07,22,15,14.50
2017,06,07,22,16,14.50
2017,06,07,22,17,17.70
2017,06,07,22,18,16.10
2017,06,07,22,19,16.10
2017,06,07,22,20,17.70
2017,06,07,22,21,12.90
2017,06,07,22,22,11.30
2017,06,07,22,23,11.30
2017,06,07,22,24,9.60
2017,06,07,22,25,11.30
2017,06,07,22,26,16.10
2017,06,07,22,27,16.10
2017,06,07,22,28,16.10
2017,06,07,22,29,12.90
2017,06,07,22,30,12.90
2017,06,07,22,31,12.90
2017,06,07,22,32,14.50
2017,06,07,22,33,12.90
2017,06,07,22,34,14.50
2017,06,07,22,35,12.90
2017,06,07,22,36,11.30
2017,06,07,22,37,11.30
2017,06,07,22,38,9.60
2017,06,07,22,39,8.10
2017,06,07,22,40,6.40
2017,06,07,22,41,6.40
2017,06,07,22,42,6.40
2017,06,07,22,43,3.20
2017,06,07,22,44,3.20